[[{"header":{"parameterUnit":"m.s-1","parameterCategory":1,"la1":30.2991,"la2":30.254,"lo1":-89.0895,"lo2":-89.0444,"dy":0.0017,"dx":0.0017,"nx":28,"ny":28,"refTime":"2025-12-30T03:00:00:Z","depth":0,"parameterNumber":2,"parameterNumberName":"U-component_of_WINDS"},"data":[0,0,0,0,0,0,0,0,0,0,0,0,0,0,0,0,0,0,0,0,0,0,0,0,0,0,0,0,0,0,0,0,0,0,0,0,0,0,0,0,0,0,0,0,0,0,0,0,0,0,0,0,0,0,0,0,0,0,1.9945,1.9945,0,1.997,1.997,1.9971,1.9961,1.996,1.996,1.9959,1.9983,1.9984,1.9985,0,0,0,0,0,0,0,0,0,0,0,0,0,1.9889,1.989,1.9945,1.9945,1.9946,1.997,1.997,1.9971,1.9961,1.996,1.996,1.9959,1.9983,1.9984,1.9986,0,0,0,0,0,0,0,0,0,0,0,0,0,1.9913,1.989,1.9945,1.9944,1.9944,1.997,1.997,1.9971,1.9961,1.996,1.9959,1.9959,1.9982,1.9984,1.9986,2.0014,0,0,1.9991,1.9992,0,0,0,0,0,0,0,0,1.9912,1.9916,1.9944,1.9944,1.9944,1.9962,1.9959,1.9985,1.9961,1.9955,1.9959,1.9958,1.9977,1.9979,1.9985,2.0015,2.0016,1.9991,1.9992,1.9993,1.9994,0,0,0,0,0,0,0,1.991,1.9914,1.9955,1.9944,1.9945,1.9942,1.9945,1.9964,1.997,1.9955,1.9954,1.9958,1.9976,1.9984,1.9986,2.0016,1.9991,1.9993,1.9994,1.9995,2.0071,2.0072,0,0,0,0,0,0,1.9909,1.9913,1.9954,1.9956,1.9926,1.9944,1.9947,1.9957,1.997,1.9971,1.9958,1.9957,1.9981,1.9984,1.9986,2.002,1.9993,1.9995,1.9996,2.007,2.0071,2.0072,0,0,0,0,0,0,1.9908,1.9912,1.9953,1.9934,1.9939,1.9946,1.9957,1.9958,1.9965,1.9972,1.9973,1.9964,1.998,1.9984,2.0007,2.0021,1.9995,1.9997,2.0069,2.007,2.0072,2.0088,0,0,0,0,0,0,1.9906,1.9912,1.9923,1.9935,1.994,1.9974,1.9958,1.9959,1.9968,1.9967,1.9978,1.9979,1.998,2.0005,2.0009,2.0023,1.9998,2.0068,2.0069,2.0071,2.0086,2.009,2.0093,0,0,0,0,0,1.9904,1.9926,1.9923,1.9928,1.9954,1.9974,1.9978,1.9978,1.9969,1.998,1.9985,1.9979,2.0019,2.0007,2.0012,2.0027,2.0067,2.0069,2.0071,2.0085,2.0089,2.0093,0,0,0,0,0,0,1.9914,1.9927,1.9925,1.9951,1.9962,1.9973,1.9986,1.9983,1.9996,1.9994,1.9994,1.9997,2.0021,2.0026,2.0013,2.0055,2.0041,2.0045,2.005,2.0054,2.0058,2.0055,2.0,0,0,0,0,0,1.992,1.9936,1.9946,1.9969,1.9974,1.998,1.9988,1.9988,1.9999,2.0004,2.001,2.0021,2.0036,2.0046,2.006,2.0087,2.009,2.01,2.0103,2.0106,2.0108,2.0124,2.0128,2.0079,2.0079,2.0079,0,0,1.9931,1.994,1.995,1.9971,1.9979,1.9996,1.9983,2.0001,2.0013,2.0006,2.0028,2.0034,2.0046,2.0072,2.0083,2.0077,2.0123,2.0109,2.0111,2.0112,2.0126,2.0131,2.0135,2.0081,2.0081,2.008,0,0,1.996,1.9969,1.9988,1.9997,2.0011,2.0014,2.0019,2.0031,2.0034,2.0057,2.0053,2.0067,2.0093,2.0102,2.011,2.0144,2.0139,2.0149,2.0165,2.018,2.0184,2.0188,2.02,2.0204,2.0151,2.0151,2.0151,0,1.9972,1.9997,1.9999,2.0017,2.0026,2.0022,2.0042,2.0051,2.0068,2.0074,2.0067,2.01,2.0108,2.0136,2.0144,2.0151,2.0156,2.0146,2.0184,2.0187,2.019,2.0202,2.0206,2.0152,2.0152,2.0152,2.0152,0,2.0011,2.0028,2.0043,2.006,2.0071,2.009,2.0095,2.0106,2.0106,2.011,2.0134,2.0143,2.016,2.0166,2.0166,2.0195,2.019,2.0184,2.017,2.0196,2.0207,2.0211,2.0154,2.0154,2.0153,2.0153,0,0,2.0045,2.0064,2.0069,2.0078,2.0093,2.0106,2.0126,2.0142,2.0152,2.0164,2.018,2.0203,2.0198,2.0207,2.0207,2.022,2.0247,2.0212,2.0212,2.0218,2.0279,2.0283,2.0288,2.0244,2.0245,2.0246,2.0278,0,2.0074,2.0108,2.0111,2.0142,2.0158,2.0155,2.0172,2.0183,2.0189,2.0203,2.0209,2.0225,2.0216,2.0222,2.0235,2.0241,2.0259,2.0239,2.0259,2.0259,2.0255,2.0294,2.0298,2.0328,2.0282,2.0283,2.0283,0,2.0112,2.0127,2.0159,2.0173,2.018,2.0195,2.0211,2.0225,2.0238,2.0241,2.0252,2.0251,2.0271,2.0258,2.0286,2.0272,2.0281,2.0285,2.0286,2.0287,2.0272,2.0295,2.0337,2.0342,2.029,2.029,2.0289,0,2.0133,2.0161,2.0184,2.0191,2.0208,2.0219,2.0226,2.0239,2.0249,2.0263,2.027,2.0286,2.0295,2.0307,2.0311,2.0301,2.0339,2.0326,2.0341,2.0341,2.0348,2.0347,2.0391,2.0355,2.0355,2.0355,2.0355,0,2.0165,2.0185,2.0194,2.0208,2.023,2.0234,2.0256,2.0263,2.0274,2.0289,2.0288,2.0303,2.0307,2.0323,2.0326,2.0348,2.0352,2.0355,2.0355,2.0354,2.0354,2.0359,2.0357,2.0356,2.0356,2.0356,2.0356,0,2.0191,2.0198,2.0223,2.0238,2.0242,2.0258,2.027,2.0284,2.029,2.0309,2.0314,2.0323,2.0341,2.0346,2.0368,2.037,2.0396,2.0395,2.0392,2.0391,2.0406,2.0405,2.0454,2.0461,2.0422,2.0422,2.0422,0,2.021,2.0226,2.0242,2.0253,2.0261,2.0278,2.0289,2.0294,2.0305,2.0322,2.0334,2.0352,2.0367,2.0396,2.0404,2.0421,2.0419,2.0436,2.0422,2.0421,2.0419,2.0418,2.0419,2.0438,2.0438,2.0439,2.0439,0,2.0243,2.0247,2.0262,2.028,2.0293,2.0307,2.032,2.0329,2.0336,2.0349,2.0368,2.038,2.0402,2.042,2.0438,2.0445,2.0443,2.0444,2.0448,2.0447,2.0444,2.0445,2.0398,2.0442,2.0442,2.0442,2.0441,2.0441,2.0266,2.028,2.0294,2.0312,2.0323,2.0336,2.035,2.0358,2.0374,2.0393,2.0396,2.0416,2.043,2.0453,2.0462,2.0478,2.0473,2.0479,2.0481,2.0482,2.0483,2.0443,2.0481,2.0481,2.0481,2.0481,2.0481,0,2.0299,2.0308,2.0325,2.0344,2.0359,2.0357,2.0372,2.0384,2.0402,2.0416,2.0431,2.0453,2.0471,2.0481,2.0499,2.051,2.0509,2.0514,2.0513,2.0515,2.0486,2.048,2.0514,2.0514,2.0514,2.0514,2.0514,2.0514,2.0317,2.034,2.0346,2.0374,2.0384,2.0404,2.0413,2.0425,2.0436,2.0461,2.0476,2.0483,2.0495,2.0514,2.0531,2.0534,2.054,2.0545,2.0547,2.052,2.0517,2.0513,2.0508,2.0547,2.0547,2.0574,2.0574,2.0574]},{"header":{"parameterUnit":"m.s-1","parameterCategory":1,"la1":30.2991,"la2":30.254,"lo1":-89.0895,"lo2":-89.0444,"dy":0.0017,"dx":0.0017,"nx":28,"ny":28,"refTime":"2025-12-30T03:00:00:Z","depth":0,"parameterNumber":3,"parameterNumberName":"V-component_of_WINDS"},"data":[0,0,0,0,0,0,0,0,0,0,0,0,0,0,0,0,0,0,0,0,0,0,0,0,0,0,0,0,0,0,0,0,0,0,0,0,0,0,0,0,0,0,0,0,0,0,0,0,0,0,0,0,0,0,0,0,0,0,-7.6449,-7.6451,0,-7.6654,-7.6656,-7.6659,-7.6585,-7.658,-7.6576,-7.6571,-7.6776,-7.6786,-7.6795,0,0,0,0,0,0,0,0,0,0,0,0,0,-7.5988,-7.5996,-7.6448,-7.6451,-7.6454,-7.6654,-7.6657,-7.6659,-7.6586,-7.658,-7.6574,-7.6569,-7.6773,-7.6785,-7.6796,0,0,0,0,0,0,0,0,0,0,0,0,0,-7.619,-7.5999,-7.6448,-7.6441,-7.6442,-7.6653,-7.6657,-7.666,-7.6587,-7.658,-7.6573,-7.6566,-7.6769,-7.6783,-7.6798,-7.7026,0,0,-7.6843,-7.6849,0,0,0,0,0,0,0,0,-7.6178,-7.6207,-7.6439,-7.6442,-7.6444,-7.6587,-7.6569,-7.6783,-7.6588,-7.6532,-7.6571,-7.6563,-7.6718,-7.6737,-7.679,-7.7036,-7.7044,-7.6844,-7.6853,-7.6859,-7.6863,0,0,0,0,0,0,0,-7.6165,-7.6197,-7.6529,-7.6443,-7.6446,-7.6426,-7.6447,-7.6609,-7.6661,-7.6536,-7.6531,-7.6557,-7.6718,-7.6776,-7.6795,-7.7047,-7.6843,-7.6856,-7.6865,-7.6871,-7.7491,-7.7498,0,0,0,0,0,0,-7.615,-7.6186,-7.6523,-7.6536,-7.6292,-7.644,-7.6464,-7.6548,-7.6659,-7.667,-7.6563,-7.6553,-7.6755,-7.6778,-7.6802,-7.7077,-7.6859,-7.6873,-7.6881,-7.7483,-7.7493,-7.7501,0,0,0,0,0,0,-7.6141,-7.6181,-7.6515,-7.636,-7.6401,-7.6455,-7.655,-7.6555,-7.6614,-7.6679,-7.6688,-7.6613,-7.675,-7.6781,-7.6971,-7.7083,-7.6879,-7.6892,-7.7474,-7.7486,-7.7497,-7.763,0,0,0,0,0,0,-7.6128,-7.6178,-7.6266,-7.6363,-7.641,-7.6683,-7.6557,-7.6564,-7.664,-7.6629,-7.6729,-7.6738,-7.6747,-7.695,-7.6986,-7.71,-7.6904,-7.7464,-7.748,-7.7493,-7.7616,-7.7644,-7.7669,0,0,0,0,0,-7.6111,-7.6294,-7.6271,-7.6312,-7.6521,-7.669,-7.6716,-7.6724,-7.6649,-7.6738,-7.678,-7.6735,-7.7065,-7.697,-7.701,-7.713,-7.7458,-7.7475,-7.7492,-7.7604,-7.7639,-7.7668,0,0,0,0,0,0,-7.6207,-7.6306,-7.6282,-7.6502,-7.6588,-7.6677,-7.6789,-7.6761,-7.6869,-7.6854,-7.6858,-7.6881,-7.7077,-7.7122,-7.7015,-7.7357,-7.725,-7.7276,-7.7321,-7.7355,-7.7381,-7.7366,-7.6916,0,0,0,0,0,-7.6254,-7.6385,-7.6463,-7.6649,-7.6694,-7.6735,-7.6808,-7.6807,-7.6896,-7.6931,-7.6987,-7.7074,-7.7197,-7.7278,-7.7395,-7.7621,-7.7642,-7.7723,-7.775,-7.7771,-7.7794,-7.7918,-7.7955,-7.7558,-7.7558,-7.7557,0,0,-7.6352,-7.6422,-7.6504,-7.667,-7.6737,-7.6871,-7.6766,-7.6911,-7.701,-7.6953,-7.7137,-7.7181,-7.7278,-7.7488,-7.7583,-7.7531,-7.7908,-7.7793,-7.781,-7.7821,-7.794,-7.7977,-7.8011,-7.757,-7.7568,-7.7566,0,0,-7.6599,-7.6665,-7.6829,-7.6898,-7.7002,-7.7027,-7.7066,-7.716,-7.7188,-7.7374,-7.7334,-7.745,-7.7662,-7.7733,-7.7797,-7.8072,-7.8035,-7.811,-7.825,-7.837,-7.8402,-7.843,-7.8529,-7.8564,-7.8132,-7.8132,-7.8133,0,-7.6708,-7.6909,-7.6915,-7.7065,-7.714,-7.7096,-7.7261,-7.7327,-7.7463,-7.7514,-7.7455,-7.7721,-7.7782,-7.8009,-7.8077,-7.8129,-7.8174,-7.8099,-7.8397,-7.8425,-7.8451,-7.8546,-7.8583,-7.8141,-7.814,-7.8139,-7.8138,0,-7.7038,-7.7178,-7.7297,-7.7432,-7.7519,-7.7675,-7.7704,-7.7791,-7.7783,-7.7815,-7.8004,-7.8077,-7.8208,-7.8261,-7.8253,-7.8487,-7.8452,-7.8395,-7.8288,-7.8497,-7.8586,-7.8623,-7.8153,-7.815,-7.8147,-7.8145,0,0,-7.7351,-7.7488,-7.7532,-7.7593,-7.7704,-7.7812,-7.7966,-7.8097,-7.8172,-7.8267,-7.8396,-7.8577,-7.8525,-7.8598,-7.8597,-7.8703,-7.8918,-7.8633,-7.8635,-7.8684,-7.9181,-7.9224,-7.9266,-7.8893,-7.89,-7.8906,-7.9173,0,-7.7608,-7.7882,-7.7892,-7.814,-7.827,-7.8231,-7.8365,-7.8447,-7.8481,-7.8594,-7.863,-7.8759,-7.8681,-7.8725,-7.8828,-7.887,-7.9017,-7.885,-7.9013,-7.9019,-7.8992,-7.9313,-7.9359,-7.9608,-7.9208,-7.9214,-7.9218,0,-7.7945,-7.8053,-7.8316,-7.8409,-7.8464,-7.8585,-7.8706,-7.8815,-7.8907,-7.8924,-7.9006,-7.899,-7.9147,-7.9034,-7.9249,-7.9135,-7.9202,-7.9233,-7.9242,-7.9259,-7.9132,-7.9339,-7.9687,-7.9725,-7.9273,-7.9268,-7.9264,0,-7.815,-7.836,-7.8545,-7.8598,-7.8711,-7.8798,-7.8848,-7.8934,-7.9012,-7.9117,-7.9168,-7.9288,-7.9355,-7.9448,-7.9465,-7.9381,-7.9681,-7.9569,-7.97,-7.97,-7.9765,-7.9761,-8.0131,-7.9807,-7.9806,-7.9805,-7.9805,0,-7.8437,-7.8599,-7.8638,-7.8752,-7.8933,-7.8942,-7.912,-7.9164,-7.9241,-7.9361,-7.9333,-7.9446,-7.9461,-7.9578,-7.9592,-7.9769,-7.9798,-7.9816,-7.9818,-7.982,-7.9818,-7.9864,-7.9848,-7.9815,-7.9813,-7.9811,-7.9809,0,-7.8696,-7.8729,-7.8928,-7.902,-7.9046,-7.9176,-7.9253,-7.9362,-7.9392,-7.9546,-7.9582,-7.963,-7.9766,-7.9792,-7.9952,-7.9961,-8.0173,-8.0156,-8.0143,-8.0141,-8.0271,-8.0259,-8.0685,-8.0741,-8.0378,-8.0382,-8.0385,0,-7.8878,-7.9002,-7.9108,-7.9188,-7.9244,-7.9372,-7.9453,-7.9466,-7.9551,-7.9666,-7.976,-7.9894,-8.0002,-8.0221,-8.0269,-8.0392,-8.0379,-8.052,-8.0397,-8.0395,-8.0383,-8.0376,-8.0389,-8.0544,-8.0547,-8.0551,-8.0553,0,-7.9197,-7.9208,-7.9325,-7.945,-7.9547,-7.9645,-7.9738,-7.9805,-7.983,-7.9927,-8.0067,-8.0151,-8.0316,-8.0449,-8.0572,-8.0622,-8.0593,-8.0591,-8.0628,-8.0632,-8.062,-8.063,-8.0209,-8.0582,-8.0579,-8.0577,-8.0575,-8.0574,-7.9424,-7.9533,-7.9626,-7.9758,-7.983,-7.9918,-8.0025,-8.007,-8.0188,-8.0325,-8.0325,-8.0479,-8.0567,-8.0729,-8.0787,-8.0907,-8.0862,-8.0915,-8.0929,-8.0942,-8.0955,-8.06,-8.0929,-8.0928,-8.0927,-8.0926,-8.0926,0,-7.9743,-7.9801,-7.9923,-8.0055,-8.016,-8.0124,-8.0225,-8.0314,-8.0451,-8.0537,-8.0645,-8.0806,-8.0935,-8.0994,-8.1121,-8.1206,-8.1195,-8.1239,-8.1233,-8.1245,-8.0987,-8.0943,-8.1245,-8.1245,-8.1245,-8.1245,-8.1245,-8.1245,-7.9922,-8.0106,-8.0127,-8.0346,-8.0401,-8.0554,-8.0615,-8.0696,-8.0764,-8.0947,-8.1055,-8.1093,-8.1169,-8.1301,-8.1418,-8.1431,-8.148,-8.153,-8.1538,-8.1296,-8.1263,-8.1233,-8.1191,-8.154,-8.1541,-8.1786,-8.1788,-8.179]}]]